TimeCDT,TemperatureF,Dew PointF,Humidity,Sea Level PressureIn,VisibilityMPH,Wind Direction,Wind SpeedMPH,Gust SpeedMPH,PrecipitationIn,Events,Conditions,WindDirDegrees,DateUTC
12:53 AM,73.9,66.0,76,29.90,10.0,SSE,10.4,-,N/A,,Clear,160,2013-07-07 05:53:00
1:53 AM,73.0,66.0,79,29.89,10.0,South,6.9,-,N/A,,Clear,170,2013-07-07 06:53:00
2:53 AM,70.0,66.0,87,29.90,10.0,SSE,3.5,-,N/A,,Clear,150,2013-07-07 07:53:00
3:53 AM,69.1,66.0,90,29.88,9.0,SSE,4.6,-,N/A,,Clear,150,2013-07-07 08:53:00
4:53 AM,69.1,66.0,90,29.89,9.0,SSE,6.9,-,N/A,,Clear,150,2013-07-07 09:53:00
5:53 AM,69.1,66.0,90,29.90,7.0,SSE,6.9,-,N/A,,Clear,150,2013-07-07 10:53:00
6:53 AM,70.0,66.0,87,29.90,8.0,SSE,5.8,-,N/A,,Clear,160,2013-07-07 11:53:00
7:53 AM,71.1,66.9,87,29.90,8.0,SSE,6.9,-,N/A,,Clear,150,2013-07-07 12:53:00
8:53 AM,75.9,66.9,74,29.90,10.0,South,9.2,-,N/A,,Clear,170,2013-07-07 13:53:00
9:53 AM,80.1,66.9,64,29.90,10.0,SSW,12.7,-,N/A,,Clear,200,2013-07-07 14:53:00
10:53 AM,84.0,68.0,58,29.88,10.0,South,11.5,-,N/A,,Clear,190,2013-07-07 15:53:00
11:53 AM,86.0,68.0,55,29.88,10.0,South,15.0,-,N/A,,Clear,190,2013-07-07 16:53:00
12:53 PM,88.0,68.0,51,29.88,10.0,South,15.0,-,N/A,,Clear,180,2013-07-07 17:53:00
1:53 PM,90.0,68.0,48,29.87,10.0,SSW,11.5,21.9,N/A,,Clear,200,2013-07-07 18:53:00
2:53 PM,91.0,71.1,52,29.86,10.0,South,13.8,19.6,N/A,,Clear,170,2013-07-07 19:53:00
3:53 PM,91.9,66.9,44,29.86,10.0,SSW,15.0,25.3,N/A,,Clear,200,2013-07-07 20:53:00
4:53 PM,90.0,68.0,48,29.86,10.0,SSW,11.5,23.0,N/A,,Clear,200,2013-07-07 21:53:00
5:53 PM,89.1,70.0,53,29.85,10.0,SSW,10.4,-,N/A,,Mostly Cloudy,200,2013-07-07 22:53:00
6:53 PM,87.1,70.0,57,29.85,10.0,SSW,12.7,20.7,N/A,,Mostly Cloudy,210,2013-07-07 23:53:00
7:53 PM,84.0,71.1,65,29.86,10.0,SSW,8.1,-,N/A,,Clear,200,2013-07-08 00:53:00
8:53 PM,82.0,71.1,69,29.86,10.0,South,9.2,-,N/A,,Clear,190,2013-07-08 01:53:00
9:53 PM,81.0,70.0,69,29.88,10.0,South,10.4,-,N/A,,Scattered Clouds,190,2013-07-08 02:53:00
10:53 PM,81.0,70.0,69,29.89,10.0,South,10.4,-,N/A,,Mostly Cloudy,190,2013-07-08 03:53:00
11:53 PM,80.1,71.1,74,29.90,10.0,South,8.1,-,N/A,,Overcast,190,2013-07-08 04:53:00